User: anonymous   Login
Location: Alfortville
(48.8058°N, 2.4204°E)
Time: 06:53:56
(UTC+00:00)
Language:

Cosmos 1408 - Orbit

View from above orbital plane
View from above orbital plane
View from above satellite
View from above satellite

Ground track
Ground track

The orbit data is extracted from the following two-line orbital elements,

1 13552U 82092A   22027.81531148  .00003058  00000-0  98383-4 0  9992
2 13552  82.5720  49.8182 0025755 244.8915 114.9654 15.31495214154422
Epoch (UTC): 27 January 2022 19:34:02
Eccentricity: 0.0025755
inclination: 82.5720°
perigee height: 454 km
apogee height: 489 km
right ascension of ascending node: 49.8182°
argument of perigee: 244.8915°
revolutions per day: 15.31495214
mean anomaly at epoch: 114.9654°
orbit number at epoch: 15442

The dashed part of the orbit path shows where the satellite is in the earth's shadow,  

DLR